Location: Tel Aviv
(32.0670°N, 34.7670°E)
Time: 23:14:59
(UTC+03:00)

YUBILEINY - Visible Passes

Search period start: 30 March 2023 00:00
Search period end: 09 April 2023 00:00
Orbit: 1477 x 1509 km, 82.5° (Epoch: 30 March)

Date Brightness Start Highest point End Pass type
(mag) Time Alt. Az. Time Alt. Az. Time Alt. Az.
30 Mar ? 00:01:43 10° N 00:04:49 25° N 00:04:49 25° N visible
30 Mar ? 23:12:34 10° N 23:15:44 23° NNE 23:15:44 23° NNE visible
31 Mar ? 01:09:39 10° NNW 01:11:39 17° NW 01:11:39 17° NW visible
31 Mar ? 22:24:21 10° NNE 22:26:41 16° NE 22:26:41 16° NE visible
01 Apr ? 00:19:22 10° NNW 00:22:35 26° NNW 00:22:35 26° NNW visible
01 Apr ? 23:29:46 10° N 23:33:32 29° N 23:33:32 29° N visible
02 Apr ? 01:28:25 10° NW 01:29:27 13° NW 01:29:27 13° NW visible
02 Apr ? 22:40:50 10° NNE 22:44:29 24° NNE 22:44:29 24° NNE visible
03 Apr ? 00:37:20 10° NNW 00:40:25 23° NNW 00:40:25 23° NNW visible
03 Apr ? 21:53:06 10° NNE 21:55:27 15° NE 21:55:27 15° NE visible
03 Apr ? 23:47:17 10° N 23:51:23 32° NNW 23:51:23 32° NNW visible
04 Apr ? 22:57:52 10° N 23:02:21 32° NNE 23:02:21 32° NNE visible
05 Apr ? 00:55:48 10° NNW 00:58:16 18° NW 00:58:16 18° NW visible
05 Apr ? 22:09:11 10° NNE 22:13:20 23° NE 22:13:20 23° NE visible
06 Apr ? 00:05:07 10° NNW 00:09:15 30° NNW 00:09:15 30° NNW visible
06 Apr ? 21:22:15 10° NE 21:24:20 13° NE 21:24:20 13° NE visible
06 Apr ? 23:15:15 10° N 23:20:15 39° N 23:20:15 39° N visible
07 Apr ? 01:15:15 10° NW 01:16:10 12° NW 01:16:10 12° NW visible
07 Apr ? 22:26:02 10° N 22:31:16 34° NNE 22:31:16 34° NNE visible
08 Apr ? 00:23:20 10° NNW 00:27:11 24° NW 00:27:11 24° NW visible
08 Apr ? 21:37:40 10° NNE 21:42:18 21° NE 21:42:18 21° NE visible
08 Apr ? 23:32:57 10° NNW 23:38:13 40° NNW 23:38:13 40° NNW visible
